Orbital Elements at Epoch 2459200.5 (2020-Dec-17.0) TDB
Reference: JPL 2 (heliocentric ecliptic J2000)
Element | Value | Uncertainty (1-sigma) | Units |
e | .08879033914111588 | 6.4612e-05 | |
a | 1.095595174507736 | 8.1614e-05 | au |
q | .9983169074018242 | 3.5798e-06 | au |
i | 2.635702566308789 | 0.0015145 | deg |
node | 190.191531188617 | 0.0018931 | deg |
peri | 203.3902779101651 | 0.012326 | deg |
M | 45.0241813855251 | 0.0042624 | deg |
tp | 2459148.113797472672 (2020-Oct-25.61379747) | 0.01081 | TDB |
period | 418.8645374438942 1.15 | 0.046804 0.0001281 | d yr |
n | .8594664093477262 | 9.6036e-05 | deg/d |
Q | 1.192873441613648 | 8.8861e-05 | au |
|
| | Orbit Determination Parameters
Additional Information
|